PDT,Max TemperatureF,Mean TemperatureF,Min TemperatureF,Max Dew PointF,MeanDew PointF,Min DewpointF,Max Humidity, Mean Humidity, Min Humidity, Max Sea Level PressureIn, Mean Sea Level PressureIn, Min Sea Level PressureIn, Max VisibilityMiles, Mean VisibilityMiles, Min VisibilityMiles, Max Wind SpeedMPH, Mean Wind SpeedMPH, Max Gust SpeedMPH,PrecipitationIn, CloudCover, Events, WindDirDegrees
2012-10-1,82,60,39,45,38,30,83,52,15,30.25,30.13,29.94,10,10,6,7,3,,0.00,0,,162
2012-10-2,80,66,52,53,35,18,83,39,15,30.23,30.02,29.90,10,8,2,30,9,39,0.00,3,,292
2012-10-3,63,48,32,30,25,19,64,43,28,30.42,30.33,30.27,10,10,6,9,3,,0.00,1,,143
2012-10-4,66,46,27,32,26,22,81,53,23,30.33,30.28,30.25,10,10,8,6,3,,0.00,0,,120
2012-10-5,64,46,27,28,23,20,81,51,20,30.38,30.31,30.27,10,10,6,12,5,,0.00,0,,134
2012-10-6,68,46,24,27,24,19,85,51,20,30.35,30.27,30.18,10,9,7,9,3,,0.00,0,,115
2012-10-7,69,47,25,34,25,16,72,49,20,30.19,30.09,29.97,10,9,2,7,3,,0.00,0,,154
2012-10-8,70,49,28,35,27,22,78,49,21,29.99,29.95,29.89,10,10,6,7,2,,0.00,0,,149
2012-10-9,75,54,34,43,32,23,68,48,25,30.08,30.01,29.97,10,9,4,6,2,,0.00,0,,149
2012-10-10,78,56,35,45,36,30,82,54,25,29.97,29.89,29.80,10,9,6,6,2,,0.00,0,,128
2012-10-11,73,55,37,46,37,33,83,60,30,29.96,29.87,29.77,10,9,6,7,3,,0.00,0,,129
2012-10-12,70,52,37,52,43,32,93,72,37,30.01,29.87,29.78,10,10,7,15,6,24,0.24,4,Rain,205
2012-10-13,69,60,54,56,52,49,90,78,57,30.19,30.13,30.03,10,10,10,16,9,25,0.04,2,Rain,225
2012-10-14,68,56,46,56,51,47,100,79,54,30.15,30.04,29.94,10,10,8,8,5,,0.07,2,Rain,173
2012-10-15,75,63,53,60,56,51,96,80,52,29.96,29.83,29.63,10,10,8,10,5,,0.25,4,Rain,210
2012-10-16,64,57,50,61,47,37,94,66,40,30.20,29.87,29.57,10,9,2,30,14,39,0.24,3,Rain,250
2012-10-17,62,50,39,39,37,34,86,66,36,30.30,30.25,30.22,10,10,10,10,4,,0.00,0,,230
2012-10-18,66,48,33,42,38,32,96,71,36,30.25,30.10,29.88,10,10,9,9,3,,0.00,0,,145
2012-10-19,64,58,52,53,48,40,86,69,55,29.91,29.80,29.69,10,10,10,16,6,25,0.02,6,Rain,218
2012-10-20,57,50,43,47,36,32,75,58,37,29.92,29.86,29.75,10,10,10,18,14,33,0.00,4,,234
2012-10-21,57,42,30,37,33,29,92,70,42,29.93,29.87,29.78,10,10,10,9,5,,0.00,2,,177
2012-10-22,45,40,35,42,37,32,97,87,73,29.78,29.64,29.55,10,9,4,9,4,,0.12,6,Rain,190
2012-10-23,55,44,32,38,34,30,93,76,43,29.93,29.84,29.72,10,10,10,10,3,,0.00,3,,166
2012-10-24,51,42,33,43,36,31,100,86,68,30.17,30.01,29.89,10,9,0,7,4,,0.03,4,Fog-Rain,53
2012-10-25,53,43,33,40,37,32,100,86,59,30.43,30.33,30.16,10,8,0,7,2,,0.00,5,Fog,237
2012-10-26,46,40,33,41,37,32,96,87,74,30.38,30.21,30.13,10,8,2,10,2,,0.02,6,Rain,26
2012-10-27,51,44,37,47,43,37,100,93,80,30.13,30.03,29.89,10,5,2,7,2,,0.30,6,Rain,174
2012-10-28,64,54,46,55,51,46,100,89,67,29.92,29.89,29.86,10,8,2,12,3,,0.22,8,Rain,182
2012-10-29,72,61,51,57,51,47,100,84,45,30.04,29.91,29.83,10,6,2,20,4,28,0.03,4,Rain,194
2012-10-30,63,54,46,52,49,46,97,84,63,30.00,29.89,29.81,10,10,9,7,3,,0.00,2,,324
2012-10-31,57,50,44,52,49,44,100,93,77,29.80,29.72,29.65,10,4,0,13,3,16,0.01,4,Fog,240